Location: Czekanka
(50.4925°N, 19.2643°E)
Time: 07:53:04
(UTC+00:00)

SL-16 R/B - Pass Details

Date: 21 September 2024
Orbit: 842 x 846 km, 71.0° (Epoch: 05 October)

Event Time Altitude Azimuth Distance (km) Brightness Sun altitude
Rises 00:08:58 0° 327° (NNW) 3,413 5.7 -35.2°
Reaches altitude 10° 00:13:25 10° 360° (N) 2,475 5.2 -34.9°
Maximum altitude 00:15:21 12° 20° (NNE) 2,357 5.3 -34.7°
Drops below altitude 10° 00:17:16 10° 40° (NE) 2,472 5.4 -34.6°
Sets 00:21:42 0° 72° (ENE) 3,404 6.0 -34.2°
